{"data":{"norad_id":65436,"epoch":"2026-09-20T20:01:31.743552Z","epoch_age_seconds":86017,"freshness":"FRESH","line1":"1 65436U 25194C   26263.83439518  .00003828  00000+0  23559-3 0  9992","line2":"2 65436  97.2849 113.5917 0002170  84.5964 275.5514 15.10570529 59039","mean_motion":15.10570529,"eccentricity":0.000217,"inclination_deg":97.2849,"raan_deg":113.5917,"arg_perigee_deg":84.5964,"mean_anomaly_deg":275.5514,"bstar":0.00023559,"rev_number":5903,"period_min":95.328220189314,"perigee_km":532.9588712508,"apogee_km":535.95893787338,"semimajor_km":6912.5959045621,"source":"CELESTRAK","updated_at":"2026-09-21T09:00:35.608763Z"}}